Lafayette, LA

6:25 AM CST on November 24, 2017 (GMT -0600)
Lafayette Regional

Weather History for KLFT - June, 2013

Change the Weather History Date:

Friday, June 28, 2013

  Actual Average Record
Temperature  
Mean Temperature 87 °F 83 °F  
Max Temperature 94 °F 91 °F 99 °F (2009)
Min Temperature 80 °F 74 °F 62 °F (1974)
Cooling Degree Days 22 18  
Month to date cooling degree days 499 463  
Year to date cooling degree days 963 1077  
Since 1 June cooling degree days 499 463  
Growing Degree Days 36 (Base 50)    
Moisture  
Dew Point 75 °F    
Average Humidity 67    
Maximum Humidity 85    
Minimum Humidity 49    
Precipitation  
Precipitation 0.00 in 0.25 in 4.22 in (1989)
Month to date precipitation 2.98 6.56  
Year to date precipitation 35.10 29.18  
Sea Level Pressure  
Sea Level Pressure 29.90 in    
Wind  
Wind Speed 9 mph (West)    
Max Wind Speed 15 mph    
Max Gust Speed 20 mph    
Visibility 10 miles    
Events      
T = Trace of Precipitation, MM = Missing Value Source: NWS Daily Summary

Daily Weather History Graph

Daily Weather History Graph

Search for Another Location

Airport or City:

Trip Planner

Search our weather history database for the weather conditions in past years. The results will help you decide how hot, cold, wet, or windy it might be!

Date:

Astronomy

Jun. 28, 2013 Rise Set
Actual Time 6:08 AM CDT 8:13 PM CDT
Civil Twilight 5:41 AM CDT 8:41 PM CDT
Nautical Twilight 5:08 AM CDT 9:14 PM CDT
Astronomical Twilight 4:32 AM CDT 9:50 PM CDT
Moon No Moon Rise 11:50 AM CDT (6/28)
Length of Visible Light 14h 59m
Length of Day
14h 04m
Waning Gibbous, 66% of the Moon is Illuminated
Jun 28
Waning Gibbous
Jun 29
Last Quarter
Jul 8
New
Jul 15
First Quarter
Jul 22
Full

Hourly Weather History & Observations

Time (CDT) Temp. Heat Index Dew Point Humidity Pressure Visibility Wind Dir Wind Speed Gust Speed Precip Events Conditions
12:53 AM 82.0 °F 89.4 °F 75.9 °F 82% 29.96 in 10.0 mi WSW 5.8 mph - N/A   Clear
1:53 AM 82.0 °F 89.4 °F 75.9 °F 82% 29.96 in 10.0 mi WSW 5.8 mph - N/A   Clear
2:53 AM 81.0 °F 87.3 °F 75.9 °F 85% 29.97 in 10.0 mi WSW 5.8 mph - N/A   Clear
3:53 AM 81.0 °F 87.3 °F 75.9 °F 85% 29.95 in 10.0 mi WSW 8.1 mph - N/A   Clear
4:53 AM 81.0 °F 87.3 °F 75.9 °F 85% 29.94 in 10.0 mi WSW 8.1 mph - N/A   Clear
5:53 AM 80.1 °F 85.4 °F 75.9 °F 87% 29.92 in 10.0 mi WSW 6.9 mph - N/A   Clear
6:53 AM 80.1 °F 85.4 °F 75.9 °F 87% 29.95 in 10.0 mi WNW 5.8 mph - N/A   Clear
7:53 AM 82.0 °F 90.2 °F 77.0 °F 85% 29.96 in 10.0 mi WNW 9.2 mph - N/A   Clear
8:23 AM 82.4 °F 90.9 °F 77.0 °F 84% 29.96 in 10.0 mi WNW 9.2 mph - N/A   Mostly Cloudy
8:53 AM 84.0 °F 93.7 °F 77.0 °F 79% 29.96 in 10.0 mi West 11.5 mph 18.4 mph N/A   Mostly Cloudy
8:57 AM 84.2 °F 94.1 °F 77.0 °F 79% 29.96 in 10.0 mi WNW 9.2 mph 18.4 mph N/A   Mostly Cloudy
9:22 AM 84.2 °F 92.3 °F 75.2 °F 74% 29.96 in 10.0 mi WNW 13.8 mph - N/A   Mostly Cloudy
9:53 AM 86.0 °F 96.0 °F 75.9 °F 72% 29.96 in 10.0 mi West 11.5 mph - N/A   Mostly Cloudy
10:00 AM 86.0 °F 95.1 °F 75.2 °F 70% 29.96 in 10.0 mi NW 11.5 mph - N/A   Mostly Cloudy
10:40 AM 89.6 °F 98.2 °F 73.4 °F 59% 29.94 in 10.0 mi NW 11.5 mph 17.3 mph N/A   Partly Cloudy
10:53 AM 89.1 °F 98.0 °F 73.9 °F 61% 29.94 in 10.0 mi West 10.4 mph - N/A   Clear
11:53 AM 90.0 °F 97.9 °F 73.0 °F 57% 29.92 in 10.0 mi West 10.4 mph 16.1 mph N/A   Partly Cloudy
12:53 PM 91.0 °F 100.4 °F 73.9 °F 57% 29.92 in 10.0 mi West 8.1 mph - N/A   Partly Cloudy
1:53 PM 93.0 °F 100.7 °F 72.0 °F 50% 29.90 in 10.0 mi West 12.7 mph - N/A   Clear
2:53 PM 93.9 °F 103.4 °F 73.0 °F 51% 29.87 in 10.0 mi West 10.4 mph - N/A   Partly Cloudy
3:53 PM 93.0 °F 101.9 °F 73.0 °F 52% 29.85 in 10.0 mi WSW 10.4 mph - N/A   Partly Cloudy
4:53 PM 93.0 °F 100.7 °F 72.0 °F 50% 29.83 in 10.0 mi WSW 10.4 mph 17.3 mph N/A   Partly Cloudy
5:53 PM 93.0 °F 100.7 °F 72.0 °F 50% 29.82 in 10.0 mi West 8.1 mph - N/A   Clear
6:53 PM 91.9 °F 99.5 °F 72.0 °F 52% 29.81 in 10.0 mi WSW 8.1 mph - N/A   Clear
7:53 PM 90.0 °F 97.9 °F 73.0 °F 57% 29.80 in 10.0 mi WSW 8.1 mph - N/A   Clear
8:53 PM 87.1 °F 96.3 °F 75.0 °F 67% 29.79 in 10.0 mi WSW 10.4 mph - N/A   Clear
9:53 PM 84.0 °F 91.2 °F 73.9 °F 72% 29.81 in 10.0 mi WSW 8.1 mph - N/A   Clear
10:53 PM 82.9 °F 90.2 °F 75.0 °F 77% 29.83 in 10.0 mi SW 10.4 mph - N/A   Clear
11:53 PM 82.0 °F 89.4 °F 75.9 °F 82% 29.83 in 10.0 mi WSW 8.1 mph - N/A   Clear